| time (UTC) | temp F | wind direction | speed knots | gust knots | rain 1hr in | rain 24hr in | rain mn in | humidity % | barometer mb |
| 20260504025542 | 60 | 239 | 0.9 | 0.9 | 0.00 | 0.00 | 0.00 | 49 | 1007.7 |
| 20260504025038 | 61 | 239 | 0.9 | 1.7 | 0.00 | 0.00 | 0.00 | 47 | 1007.9 |
| 20260504024535 | 62 | 239 | 1.7 | 1.7 | 0.00 | 0.00 | 0.00 | 45 | 1007.7 |
| 20260504024032 | 63 | 240 | 1.7 | 1.7 | 0.00 | 0.00 | 0.00 | 44 | 1007.6 |
| 20260504023529 | 63 | 240 | 0.9 | 1.7 | 0.00 | 0.00 | 0.00 | 43 | 1007.8 |
| 20260504023025 | 63 | 240 | 0.9 | 1.7 | 0.00 | 0.00 | 0.00 | 43 | 1007.9 |
| 20260504022520 | 63 | 240 | 0.9 | 1.7 | 0.00 | 0.00 | 0.00 | 42 | 1007.7 |
| 20260504022017 | 63 | 241 | 0.9 | 0.9 | 0.00 | 0.00 | 0.00 | 42 | 1007.6 |
| 20260504021515 | 63 | 241 | 0.9 | 0.9 | 0.00 | 0.00 | 0.00 | 43 | 1007.6 |
| 20260504021012 | 63 | 241 | 0.9 | 1.7 | 0.00 | 0.00 | 0.00 | 44 | 1007.7 |
| 20260504020508 | 64 | 223 | 1.7 | 2.6 | 0.00 | 0.00 | 0.00 | 42 | 1007.6 |
| 20260504020005 | 65 | 251 | 1.7 | 1.7 | 0.00 | 0.00 | 0.00 | 39 | 1007.7 |
| 20260504015501 | 65 | 267 | 0.0 | 0.9 | 0.00 | 0.00 | 0.00 | 39 | 1007.8 |
| 20260504014957 | 65 | 255 | 0.9 | 1.7 | 0.00 | 0.00 | 0.00 | 40 | 1007.6 |
| 20260504014453 | 65 | 280 | 0.9 | 0.9 | 0.00 | 0.00 | 0.00 | 41 | 1007.8 |
| 20260504013950 | 66 | 286 | 0.0 | 0.9 | 0.00 | 0.00 | 0.00 | 38 | 1007.4 |
| 20260504013449 | 66 | 287 | 0.0 | 0.0 | 0.00 | 0.00 | 0.00 | 37 | 1007.5 |
| 20260504012944 | 67 | 287 | 0.0 | 0.0 | 0.00 | 0.00 | 0.00 | 35 | 1007.5 |
| 20260504012443 | 67 | 269 | 0.0 | 0.0 | 0.00 | 0.00 | 0.00 | 37 | 1007.5 |
| 20260504011940 | 67 | 264 | 1.7 | 1.7 | 0.00 | 0.00 | 0.00 | 36 | 1007.5 |
| 20260504011436 | 67 | 278 | 0.0 | 0.0 | 0.00 | 0.00 | 0.00 | 36 | 1007.3 |
| 20260504010932 | 67 | 278 | 0.0 | 0.0 | 0.00 | 0.00 | 0.00 | 36 | 1007.5 |
| 20260504010428 | 68 | 278 | 0.0 | 0.9 | 0.00 | 0.00 | 0.00 | 36 | 1007.6 |
| 20260504005925 | 69 | 279 | 0.9 | 0.9 | 0.00 | 0.00 | 0.00 | 35 | 1007.5 |
| 20260504005421 | 71 | 289 | 0.0 | 0.0 | 0.00 | 0.00 | 0.00 | 32 | 1007.4 |
| 20260504004919 | 72 | 289 | 0.0 | 0.9 | 0.00 | 0.00 | 0.00 | 31 | 1007.5 |
| 20260504004417 | 72 | 289 | 0.0 | 0.0 | 0.00 | 0.00 | 0.00 | 30 | 1007.6 |
| 20260504003914 | 73 | 289 | 0.0 | 2.6 | 0.00 | 0.00 | 0.00 | 29 | 1007.6 |
| 20260504003410 | 73 | 302 | 0.9 | 1.7 | 0.00 | 0.00 | 0.00 | 29 | 1007.5 |
| 20260504002907 | 73 | 301 | 0.9 | 2.6 | 0.00 | 0.00 | 0.00 | 28 | 1007.6 |
| 20260504002403 | 73 | 294 | 1.7 | 4.3 | 0.00 | 0.00 | 0.00 | 29 | 1007.7 |
| 20260504001901 | 74 | 290 | 0.9 | 2.6 | 0.00 | 0.00 | 0.00 | 29 | 1007.6 |
| 20260504001358 | 74 | 265 | 0.9 | 1.7 | 0.00 | 0.00 | 0.00 | 29 | 1007.7 |
| 20260504000854 | 75 | 273 | 0.9 | 2.6 | 0.00 | 0.00 | 0.00 | 29 | 1007.6 |
| 20260504000354 | 75 | 250 | 1.7 | 4.3 | 0.00 | 0.00 | 0.00 | 28 | 1007.8 |
| 20260503235849 | 74 | 288 | 0.9 | 2.6 | 0.00 | 0.00 | 0.00 | 28 | 1007.6 |
| 20260503235348 | 74 | 315 | 3.5 | 5.2 | 0.00 | 0.00 | 0.00 | 27 | 1007.6 |
| 20260503234844 | 75 | 263 | 3.5 | 4.3 | 0.00 | 0.00 | 0.00 | 27 | 1007.8 |
| 20260503234342 | 75 | 334 | 4.3 | 8.7 | 0.00 | 0.00 | 0.00 | 27 | 1007.6 |
| 20260503233840 | 75 | 262 | 1.7 | 8.7 | 0.00 | 0.00 | 0.00 | 27 | 1007.6 |
| 20260503233336 | 75 | 292 | 4.3 | 8.7 | 0.00 | 0.00 | 0.00 | 27 | 1007.7 |
| 20260503232832 | 76 | 289 | 1.7 | 6.1 | 0.00 | 0.00 | 0.00 | 28 | 1007.6 |
| 20260503232329 | 75 | 326 | 4.3 | 7.8 | 0.00 | 0.00 | 0.00 | 27 | 1007.7 |
| 20260503231827 | 74 | 285 | 4.3 | 6.1 | 0.00 | 0.00 | 0.00 | 27 | 1007.4 |
| 20260503231323 | 75 | 348 | 1.7 | 6.1 | 0.00 | 0.00 | 0.00 | 32 | 1007.7 |
| 20260503230819 | 76 | 314 | 0.9 | 7.8 | 0.00 | 0.00 | 0.00 | 27 | 1007.4 |
| 20260503230317 | 76 | 308 | 2.6 | 7.8 | 0.00 | 0.00 | 0.00 | 27 | 1007.6 |
| 20260503225814 | 76 | 281 | 0.9 | 2.6 | 0.00 | 0.00 | 0.00 | 30 | 1007.7 |
| 20260503225309 | 75 | 298 | 2.6 | 9.6 | 0.00 | 0.00 | 0.00 | 29 | 1007.6 |
| 20260503224806 | 75 | 292 | 2.6 | 8.7 | 0.00 | 0.00 | 0.00 | 28 | 1007.7 |
| 20260503224304 | 74 | 287 | 7.0 | 13.9 | 0.00 | 0.00 | 0.00 | 28 | 1007.5 |
| 20260503223801 | 75 | 298 | 1.7 | 5.2 | 0.00 | 0.00 | 0.00 | 30 | 1007.6 |
| 20260503223259 | 75 | 265 | 3.5 | 8.7 | 0.00 | 0.00 | 0.00 | 28 | 1007.5 |
| 20260503222755 | 75 | 272 | 2.6 | 7.8 | 0.00 | 0.00 | 0.00 | 30 | 1007.6 |
| 20260503222254 | 75 | 230 | 3.5 | 11.3 | 0.00 | 0.00 | 0.00 | 31 | 1007.5 |
| 20260503221751 | 76 | 253 | 1.7 | 1.7 | 0.00 | 0.00 | 0.00 | 30 | 1007.6 |
| 20260503221243 | 75 | 288 | 4.3 | 7.0 | 0.00 | 0.00 | 0.00 | 30 | 1007.8 |
| 20260503220739 | 75 | 275 | 10.4 | 12.2 | 0.00 | 0.00 | 0.00 | 29 | 1007.7 |
| 20260503220237 | 74 | 239 | 4.3 | 7.8 | 0.00 | 0.00 | 0.00 | 30 | 1007.8 |
| 20260503215733 | 75 | 247 | 4.3 | 11.3 | 0.00 | 0.00 | 0.00 | 30 | 1007.8 |
| 20260503215231 | 75 | 228 | 4.3 | 6.1 | 0.00 | 0.00 | 0.00 | 30 | 1007.6 |
| 20260503214729 | 75 | 291 | 4.3 | 7.0 | 0.00 | 0.00 | 0.00 | 30 | 1007.8 |
| 20260503214225 | 75 | 296 | 5.2 | 11.3 | 0.00 | 0.00 | 0.00 | 30 | 1007.9 |
| 20260503213723 | 75 | 302 | 2.6 | 5.2 | 0.00 | 0.00 | 0.00 | 31 | 1007.8 |
| 20260503213220 | 74 | 283 | 2.6 | 7.0 | 0.00 | 0.00 | 0.00 | 30 | 1008.0 |
| 20260503212717 | 73 | 316 | 4.3 | 6.1 | 0.00 | 0.00 | 0.00 | 31 | 1007.7 |
| 20260503212215 | 74 | 261 | 1.7 | 4.3 | 0.00 | 0.00 | 0.00 | 31 | 1007.9 |
| 20260503211712 | 74 | 294 | 6.1 | 7.0 | 0.00 | 0.00 | 0.00 | 29 | 1007.9 |
| 20260503211207 | 74 | 249 | 4.3 | 8.7 | 0.00 | 0.00 | 0.00 | 30 | 1008.0 |
| 20260503210658 | 75 | 320 | 2.6 | 8.7 | 0.00 | 0.00 | 0.00 | 31 | 1007.9 |
| 20260503210155 | 75 | 316 | 2.6 | 9.6 | 0.00 | 0.00 | 0.00 | 31 | 1008.1 |
| 20260503205650 | 75 | 298 | 4.3 | 11.3 | 0.00 | 0.00 | 0.00 | 30 | 1008.3 |
| 20260503205147 | 75 | 274 | 6.1 | 12.2 | 0.00 | 0.00 | 0.00 | 30 | 1008.1 |
| 20260503204643 | 75 | 285 | 2.6 | 6.1 | 0.00 | 0.00 | 0.00 | 29 | 1008.2 |
| 20260503204141 | 75 | 332 | 4.3 | 7.0 | 0.00 | 0.00 | 0.00 | 28 | 1008.1 |
| 20260503203638 | 74 | 255 | 5.2 | 9.6 | 0.00 | 0.00 | 0.00 | 30 | 1008.4 |
| 20260503203136 | 74 | 297 | 7.0 | 11.3 | 0.00 | 0.00 | 0.00 | 31 | 1008.4 |
| 20260503202633 | 75 | 265 | 2.6 | 4.3 | 0.00 | 0.00 | 0.00 | 31 | 1008.4 |
| 20260503202131 | 74 | 259 | 5.2 | 9.6 | 0.00 | 0.00 | 0.00 | 30 | 1008.2 |
| 20260503201629 | 75 | 299 | 6.1 | 7.0 | 0.00 | 0.00 | 0.00 | 29 | 1008.5 |
| 20260503201126 | 74 | 317 | 4.3 | 6.1 | 0.00 | 0.00 | 0.00 | 29 | 1008.6 |
| 20260503200621 | 74 | 299 | 3.5 | 7.0 | 0.00 | 0.00 | 0.00 | 31 | 1008.5 |
| 20260503200118 | 73 | 316 | 1.7 | 9.6 | 0.00 | 0.00 | 0.00 | 32 | 1008.6 |
| 20260503195615 | 73 | 306 | 3.5 | 14.8 | 0.00 | 0.00 | 0.00 | 31 | 1008.5 |
| 20260503195111 | 73 | 283 | 6.1 | 8.7 | 0.00 | 0.00 | 0.00 | 31 | 1008.7 |
| 20260503194609 | 73 | 319 | 6.1 | 12.2 | 0.00 | 0.00 | 0.00 | 31 | 1008.8 |
| 20260503194103 | 72 | 324 | 0.0 | 6.1 | 0.00 | 0.00 | 0.00 | 32 | 1008.3 |
| 20260503193600 | 72 | 278 | 2.6 | 8.7 | 0.00 | 0.00 | 0.00 | 31 | 1008.5 |
| 20260503193056 | 72 | 299 | 6.1 | 12.2 | 0.00 | 0.00 | 0.00 | 30 | 1008.5 |
| 20260503192553 | 73 | 287 | 5.2 | 13.0 | 0.00 | 0.00 | 0.00 | 31 | 1008.5 |
| 20260503192049 | 73 | 303 | 7.8 | 11.3 | 0.00 | 0.00 | 0.00 | 30 | 1008.7 |
| 20260503191546 | 73 | 293 | 4.3 | 11.3 | 0.00 | 0.00 | 0.00 | 30 | 1008.7 |
| 20260503191042 | 72 | 295 | 7.8 | 13.9 | 0.00 | 0.00 | 0.00 | 31 | 1008.8 |
| 20260503190539 | 72 | 282 | 7.8 | 8.7 | 0.00 | 0.00 | 0.00 | 32 | 1008.5 |
| 20260503190036 | 73 | 314 | 4.3 | 9.6 | 0.00 | 0.00 | 0.00 | 34 | 1008.6 |
| 20260503185532 | 73 | 270 | 4.3 | 11.3 | 0.00 | 0.00 | 0.00 | 32 | 1008.5 |
| 20260503185027 | 73 | 314 | 7.8 | 11.3 | 0.00 | 0.00 | 0.00 | 35 | 1008.4 |
| 20260503184523 | 72 | 263 | 3.5 | 11.3 | 0.00 | 0.00 | 0.00 | 37 | 1008.3 |
| 20260503184019 | 72 | 254 | 8.7 | 12.2 | 0.00 | 0.00 | 0.00 | 37 | 1008.8 |
| 20260503183516 | 71 | 242 | 5.2 | 7.8 | 0.00 | 0.00 | 0.00 | 38 | 1008.7 |
| 20260503183013 | 71 | 266 | 5.2 | 7.8 | 0.00 | 0.00 | 0.00 | 40 | 1008.6 |
| 20260503182512 | 71 | 298 | 2.6 | 9.6 | 0.00 | 0.00 | 0.00 | 41 | 1008.7 |
| 20260503182009 | 70 | 266 | 1.7 | 11.3 | 0.00 | 0.00 | 0.00 | 45 | 1008.8 |
| 20260503181506 | 69 | 233 | 6.1 | 7.8 | 0.00 | 0.00 | 0.00 | 43 | 1008.9 |
| 20260503181002 | 69 | 238 | 7.0 | 12.2 | 0.00 | 0.00 | 0.00 | 43 | 1009.0 |
| 20260503180500 | 69 | 292 | 4.3 | 7.0 | 0.00 | 0.00 | 0.00 | 44 | 1008.7 |
| 20260503175956 | 68 | 291 | 5.2 | 9.6 | 0.00 | 0.00 | 0.00 | 45 | 1009.2 |
| 20260503175454 | 68 | 318 | 6.1 | 8.7 | 0.00 | 0.00 | 0.00 | 46 | 1008.8 |
| 20260503174951 | 68 | 222 | 6.1 | 12.2 | 0.00 | 0.00 | 0.00 | 47 | 1009.0 |
| 20260503174449 | 67 | 244 | 5.2 | 12.2 | 0.00 | 0.00 | 0.00 | 46 | 1009.0 |
| 20260503173944 | 66 | 228 | 9.6 | 12.2 | 0.00 | 0.00 | 0.00 | 48 | 1009.0 |
| 20260503173440 | 66 | 171 | 6.1 | 9.6 | 0.00 | 0.00 | 0.00 | 48 | 1009.0 |
| 20260503172937 | 66 | 236 | 7.8 | 11.3 | 0.00 | 0.00 | 0.00 | 49 | 1009.2 |
| 20260503172435 | 64 | 227 | 4.3 | 7.8 | 0.00 | 0.00 | 0.00 | 52 | 1009.5 |
| 20260503171931 | 65 | 208 | 4.3 | 13.0 | 0.00 | 0.00 | 0.00 | 51 | 1009.6 |
| 20260503171427 | 64 | 267 | 2.6 | 7.0 | 0.00 | 0.00 | 0.00 | 53 | 1009.3 |
| 20260503170925 | 65 | 228 | 7.0 | 9.6 | 0.00 | 0.00 | 0.00 | 50 | 1009.1 |
| 20260503170421 | 66 | 199 | 5.2 | 7.0 | 0.00 | 0.00 | 0.00 | 50 | 1009.5 |
| 20260503150814 | 62 | 268 | 3.5 | 9.6 | 0.00 | 0.00 | 0.00 | 50 | 1009.4 |
| 20260503150309 | 62 | 251 | 3.5 | 5.2 | 0.00 | 0.00 | 0.00 | 50 | 1009.4 |
| 20260503140234 | 59 | 226 | 5.2 | 9.6 | 0.00 | 0.00 | 0.00 | 53 | 1009.5 |
| 20260503131204 | 55 | 227 | 4.3 | 9.6 | 0.00 | 0.00 | 0.00 | 57 | 1009.7 |
| 20260503130701 | 55 | 234 | 7.0 | 8.7 | 0.00 | 0.00 | 0.00 | 56 | 1009.7 |
| 20260503130158 | 55 | 222 | 7.0 | 12.2 | 0.00 | 0.00 | 0.00 | 55 | 1009.8 |
| 20260503120124 | 55 | 245 | 4.3 | 8.7 | 0.00 | 0.00 | 0.00 | 52 | 1010.5 |
| 20260503110551 | 53 | 216 | 5.2 | 8.7 | 0.00 | 0.00 | 0.00 | 55 | 1009.8 |
| 20260503090438 | 51 | 190 | 4.3 | 7.8 | 0.00 | 0.00 | 0.00 | 56 | 1011.3 |
| 20260503081359 | 51 | 226 | 4.3 | 7.8 | 0.00 | 0.00 | 0.00 | 55 | 1012.3 |
| 20260503080855 | 51 | 225 | 7.0 | 9.6 | 0.00 | 0.00 | 0.00 | 55 | 1012.1 |
| 20260503080352 | 51 | 204 | 6.1 | 8.7 | 0.00 | 0.00 | 0.00 | 55 | 1012.2 |
| 20260503072829 | 51 | 195 | 5.2 | 8.7 | 0.00 | 0.00 | 0.00 | 54 | 1012.6 |
| 20260503072326 | 51 | 218 | 6.1 | 7.8 | 0.00 | 0.00 | 0.00 | 54 | 1012.9 |
| 20260503071822 | 51 | 219 | 6.1 | 8.7 | 0.00 | 0.00 | 0.00 | 54 | 1012.6 |
| 20260503071320 | 51 | 196 | 6.1 | 9.6 | 0.00 | 0.00 | 0.00 | 54 | 1012.5 |
| 20260503070816 | 51 | 216 | 7.0 | 12.2 | 0.00 | 0.00 | 0.00 | 53 | 1012.4 |
| 20260503070314 | 51 | 200 | 5.2 | 9.6 | 0.00 | 0.00 | 0.00 | 55 | 1012.3 |
| 20260503060233 | 51 | 217 | 5.2 | 7.8 | 0.00 | 0.00 | 0.00 | 54 | 1013.6 |
| 20260503054720 | 51 | 218 | 4.3 | 7.8 | 0.00 | 0.00 | 0.00 | 54 | 1013.6 |
| 20260503054217 | 51 | 213 | 5.2 | 7.0 | 0.00 | 0.00 | 0.00 | 54 | 1013.9 |
| 20260503053715 | 51 | 234 | 4.3 | 6.1 | 0.00 | 0.00 | 0.00 | 55 | 1014.0 |
| 20260503053213 | 50 | 222 | 5.2 | 6.1 | 0.00 | 0.00 | 0.00 | 56 | 1014.0 |
| 20260503052709 | 50 | 203 | 3.5 | 6.1 | 0.00 | 0.00 | 0.00 | 56 | 1014.2 |
| 20260503052206 | 49 | 214 | 2.6 | 5.2 | 0.00 | 0.00 | 0.00 | 58 | 1014.2 |
| 20260503051701 | 49 | 196 | 1.7 | 4.3 | 0.00 | 0.00 | 0.00 | 59 | 1014.2 |
| 20260503051159 | 49 | 220 | 3.5 | 4.3 | 0.00 | 0.00 | 0.00 | 58 | 1014.1 |
| 20260503050655 | 50 | 206 | 2.6 | 4.3 | 0.00 | 0.00 | 0.00 | 58 | 1014.2 |
| 20260503050152 | 50 | 212 | 2.6 | 2.6 | 0.00 | 0.00 | 0.00 | 58 | 1014.4 |
| 20260503045649 | 50 | 204 | 2.6 | 4.3 | 0.00 | 0.00 | 0.00 | 57 | 1014.4 |
| 20260503045147 | 50 | 212 | 2.6 | 2.6 | 0.00 | 0.00 | 0.00 | 57 | 1014.3 |
| 20260503044643 | 50 | 197 | 2.6 | 4.3 | 0.00 | 0.00 | 0.00 | 56 | 1014.4 |
| 20260503044141 | 50 | 198 | 2.6 | 4.3 | 0.00 | 0.00 | 0.00 | 56 | 1014.6 |
| 20260503043637 | 50 | 202 | 2.6 | 2.6 | 0.00 | 0.00 | 0.00 | 56 | 1014.5 |
| 20260503043134 | 50 | 220 | 2.6 | 4.3 | 0.00 | 0.00 | 0.00 | 57 | 1014.3 |
| 20260503042631 | 50 | 215 | 1.7 | 2.6 | 0.00 | 0.00 | 0.00 | 58 | 1014.5 |
| 20260503042127 | 50 | 207 | 2.6 | 2.6 | 0.00 | 0.00 | 0.00 | 58 | 1014.6 |
| 20260503041623 | 50 | 214 | 2.6 | 2.6 | 0.00 | 0.00 | 0.00 | 56 | 1014.7 |
| 20260503041121 | 50 | 210 | 2.6 | 2.6 | 0.00 | 0.00 | 0.00 | 56 | 1014.8 |
| 20260503040618 | 50 | 219 | 2.6 | 2.6 | 0.00 | 0.00 | 0.00 | 56 | 1014.9 |
| 20260503040116 | 50 | 215 | 1.7 | 2.6 | 0.00 | 0.00 | 0.00 | 55 | 1014.8 |
| 20260503035612 | 50 | 212 | 1.7 | 2.6 | 0.00 | 0.00 | 0.00 | 55 | 1015.1 |
| 20260503035110 | 51 | 213 | 1.7 | 2.6 | 0.00 | 0.00 | 0.00 | 55 | 1015.1 |
| 20260503034607 | 51 | 223 | 1.7 | 1.7 | 0.00 | 0.00 | 0.00 | 54 | 1015.4 |
| 20260503034104 | 51 | 217 | 0.9 | 1.7 | 0.00 | 0.00 | 0.00 | 53 | 1015.1 |
| 20260503033601 | 51 | 217 | 1.7 | 1.7 | 0.00 | 0.00 | 0.00 | 54 | 1015.1 |
| 20260503033059 | 51 | 209 | 2.6 | 2.6 | 0.00 | 0.00 | 0.00 | 53 | 1015.2 |
| 20260503032557 | 51 | 210 | 1.7 | 1.7 | 0.00 | 0.00 | 0.00 | 53 | 1015.4 |
| 20260503032055 | 51 | 218 | 1.7 | 2.6 | 0.00 | 0.00 | 0.00 | 54 | 1015.3 |
| 20260503031552 | 51 | 220 | 2.6 | 4.3 | 0.00 | 0.00 | 0.00 | 53 | 1015.2 |
| 20260503031050 | 52 | 220 | 1.7 | 1.7 | 0.00 | 0.00 | 0.00 | 52 | 1015.4 |
| 20260503030545 | 52 | 216 | 2.6 | 2.6 | 0.00 | 0.00 | 0.00 | 53 | 1015.5 |
| 20260503030043 | 52 | 223 | 1.7 | 2.6 | 0.00 | 0.00 | 0.00 | 52 | 1015.6 |